This is the latest recevied weather packets stored in our database for station/object W5ADC. If no packets are shown the sender has not sent any weather packets the latest 10 day(s).
| Time | Temp. | Humidity | Pressure | Rain* | Wind** | Luminosity | Snow |
|---|---|---|---|---|---|---|---|
| 1777390520 | 25° C | 93% | 1008.9 hPa | 0 mm | - | 65 W/m² | - |
| 1777390216 | 25° C | 93% | 1008.9 hPa | 0 mm | - | 83 W/m² | - |
| 1777389913 | 25° C | 93% | 1009 hPa | 0 mm | - | 53 W/m² | - |
| 1777389610 | 25° C | 93% | 1008.8 hPa | 0 mm | - | 86 W/m² | - |
| 1777389306 | 25° C | 93% | 1008.6 hPa | 0 mm | - | 51 W/m² | - |
| 1777389004 | 25° C | 93% | 1008.5 hPa | 0 mm | - | 31 W/m² | - |
| 1777388701 | 25° C | 93% | 1008.6 hPa | 0 mm | - | 55 W/m² | - |
| 1777388397 | 25° C | 92% | 1008.6 hPa | 0 mm | - | 43 W/m² | - |
| 1777388097 | 25° C | 92% | 1008.9 hPa | 0 mm | - | 61 W/m² | - |
| 1777387793 | 25° C | 93% | 1008.6 hPa | 0 mm | - | 37 W/m² | - |
| 1777387490 | 25° C | 93% | 1008.4 hPa | 0 mm | - | 74 W/m² | - |
| 1777387185 | 24.44° C | 93% | 1008.3 hPa | 0 mm | - | 54 W/m² | - |
| 1777386881 | 24.44° C | 93% | 1008.3 hPa | 0 mm | - | 59 W/m² | - |
| 1777386578 | 24.44° C | 93% | 1008.3 hPa | 0 mm | - | 66 W/m² | - |
| 1777386275 | 24.44° C | 93% | 1008.2 hPa | 0 mm | - | 56 W/m² | - |
| 1777385972 | 24.44° C | 93% | 1008.3 hPa | 0 mm | - | 31 W/m² | - |
| 1777385668 | 24.44° C | 93% | 1008.4 hPa | 0 mm | - | 34 W/m² | - |
| 1777385366 | 24.44° C | 93% | 1008.3 hPa | 0 mm | - | 36 W/m² | - |
| 1777385062 | 24.44° C | 93% | 1008.3 hPa | 0 mm | - | 38 W/m² | - |
| 1777384759 | 24.44° C | 93% | 1008.2 hPa | 0 mm | - | 39 W/m² | - |
| 1777384455 | 24.44° C | 93% | 1008.1 hPa | 0 mm | - | 26 W/m² | - |
| 1777384150 | 24.44° C | 93% | 1008.4 hPa | 0 mm | - | 24 W/m² | - |
| 1777383847 | 24.44° C | 93% | 1008.2 hPa | 0 mm | - | 25 W/m² | - |
| 1777383542 | 24.44° C | 93% | 1008.2 hPa | 0 mm | - | 24 W/m² | - |
| 1777383239 | 24.44° C | 92% | 1008.4 hPa | 0 mm | - | 26 W/m² | - |
* Rain latest hour (hover to see other rain measurements)
** Current wind speed in m/s (hover to see current wind gust speed)